User: anonymous
Location: Valdosta
(30.8330°N, 83.2790°W)
Time: 05:26:16
(UTC-04:00)
Language:

Uribyol 2 - Orbit

View from above orbital plane
View from above orbital plane
View from above satellite
View from above satellite

Ground track
Ground track

The orbit data is extracted from the following two-line orbital elements,

1 22828U 93061F   14257.80803496  .00000174  00000-0  83935-4 0  7002
2 22828 098.6559 202.9247 0009771 005.6042 354.5248 14.30341462 62055
Epoch (UTC): 14 September 2014 19:23:34
Eccentricity: 0.0009771
inclination: 98.6559°
perigee height: 783 km
apogee height: 797 km
right ascension of ascending node: 202.9247°
argument of perigee: 5.6042°
revolutions per day: 14.30341462
mean anomaly at epoch: 354.5248°
orbit number at epoch: 6205

The dashed part of the orbit path shows where the satellite is in the earth's shadow,  

DLR